Regional Weather Roundup
Issued by NWS

Home | Current Version | Previous Version | Graphics & Text | Print | Product List | Glossary On
Versions: 1 2 3 4 5 6 7 8 9 10 11 12 13 14 15 16 17 18 19 20 21 22 23 24 25 26 27 28 29 30 31 32 33 34 35 36 37 38 39 40 41 42 43 44 45 46 47 48 49 50
000
ASUS43 KBIS 300710
RWRND

NORTH DAKOTA REGIONAL WEATHER ROUNDUP
NATIONAL WEATHER SERVICE BISMARCK ND
200 AM CDT TUE JUN 30 2015

NOTE: "FAIR" INDICATES FEW OR NO CLOUDS BELOW 12,000 FEET WITH NO
SIGNIFICANT WEATHER AND/OR OBSTRUCTIONS TO VISIBILITY.


NDZ001>003-009>011-017-300800-
NORTHWEST NORTH DAKOTA

CITY           SKY/WX    TMP DP  RH WIND       PRES   REMARKS
WILLISTON      CLOUDY    71  57  61 N9        29.97F HAZE
MINOT          CLOUDY    68  63  84 E7        29.93F
MINOT AFB      CLOUDY    68  67  99 E7        29.93F
$$

NDZ018>021-031>035-040>046-300800-
SOUTHWEST NORTH DAKOTA

CITY           SKY/WX    TMP DP  RH WIND       PRES   REMARKS
BISMARCK       CLOUDY    70  65  84 NE7       29.94S
DICKINSON      CLOUDY    70  63  78 E6        29.94F
GARRISON         N/A     71  65  81 E7        29.95S
HETTINGER ARPT MOCLDY    65  59  81 NW7       29.94F
$$

NDZ004>008-012>016-024-026-027-054-300800-
NORTHEAST NORTH DAKOTA

CITY           SKY/WX    TMP DP  RH WIND       PRES   REMARKS
GRAND FORKS    MOCLDY    58  57  97 NW6       29.94R
GRND FRKS AFB  CLEAR     59  57  94 N6        29.95R
DEVILS LAKE    MOCLDY    63  57  82 E6        29.97S
$$

NDZ022-023-025-028>030-036>039-047>053-300800-
SOUTHEAST NORTH DAKOTA

CITY           SKY/WX    TMP DP  RH WIND       PRES   REMARKS
FARGO          PTCLDY    61  57  87 CALM      29.93R
JAMESTOWN      CLOUDY    65  60  84 NE3       29.96S
$$




USA.gov is the U.S. government's official web portal to all federal, state and local government web resources and services.